Terminal Aerodrome Forecast
Issued by NWS Charleston, WV

Current Version | Previous Version | Graphics & Text | Print | Product List | Glossary On
Versions: 1 2 3 4 5 6 7 8 9 10 11 12 13 14 15 16 17 18
000
FTUS41 KRLX 180500 AAB
TAFBKW
TAF AMD
KBKW 180501Z 1805/1824 14010G18KT P6SM SCT250
     FM181600 18003KT P6SM BKN150=

USA.gov is the U.S. government's official web portal to all federal, state and local government web resources and services.